Regional Weather Roundup
Issued by NWS

Home | Current Version | Previous Version | Text Only | Print | Product List | Glossary Off
Versions: 1 2 3 4 5 6 7 8 9 10 11 12 13 14 15 16 17 18 19 20 21 22 23 24 25 26 27 28 29 30 31 32 33 34 35 36 37 38 39 40 41 42 43 44 45 46 47 48 49 50

000
ASUS45 KSLC 060410
RWRUT

UTAH REGIONAL WEATHER ROUNDUP
NATIONAL WEATHER SERVICE SALT LAKE CITY UT
900 PM MST FRI FEB 05 2016

UTZ001>011-023>025-060500-

NORTHERN UTAH

CITY           SKY/WX    TMP DP  RH WIND       PRES   REMARKS
BRIGHAM CITY   CLOUDY    32  27  83 N5        30.56R WCI  27
HILL AFB       CLOUDY    31  22  70 S2        30.53R
LOGAN          CLOUDY    29  27  92 E3        30.53R FOG
OGDEN          CLOUDY    33  28  81 CALM      30.53R
PROVO AIRPORT  PTCLDY    19  16  86 CALM      30.55R
SALT LAKE CITY PTCLDY    29  22  75 SE6       30.54R WCI  23
VERNAL         CLOUDY     9   5  84 CALM      30.53R
WENDOVER       PTCLDY    27  19  74 NE5       30.52F WCI  21
HEBER CITY     PTCLDY    10   5  79 CALM      30.49S
WEST JORDAN    CLEAR     25  21  86 SW3       30.53S

$$

UTZ012>022-026-027-060500-

SOUTHERN/CENTRAL UTAH

CITY           SKY/WX    TMP DP  RH WIND       PRES   REMARKS
BLANDING       PTCLDY    15  10  83 N8        30.54S WCI   3
BRYCE CANYON   CLEAR      8   4  83 N9        30.47S WCI  -5
CEDAR CITY     PTCLDY    17  13  84 NE6       30.48S WCI   9
DELTA            N/A     13  11  93 CALM      30.55S VSB 3/4
HANKSVILLE     CLOUDY    18  18 100 N6        30.61S WCI   9
MILFORD        PTCLDY     4   2  91 S8        30.53R FOG     WCI  -9
MOAB/CYNLANDS  CLOUDY    18  15  88 N6        30.57R WCI  10
PRICE          CLEAR     11   6  81 N9        30.49S WCI  -2
ST GEORGE      PTCLDY    43  21  42 SE3       30.51S
KANAB          CLEAR     32  23  69 N9        30.53R WCI  24

$$

REGIONAL REPORTS     COLORADO/ARIZONA

CITY           SKY/WX    TMP DP  RH WIND       PRES   REMARKS
CRAIG, CO      CLOUDY    -3  -6  87 W3        30.47S
GRAND JUNCTION CLOUDY     8   6  92 E5        30.56S WCI   0
RIFLE          CLOUDY    11   4  73 SE6       30.54R WCI   1
MONTROSE       CLOUDY    11   4  73 SE8       30.55R WCI  -1
CORTEZ         CLOUDY    11   6  81 E7        30.47R WCI   0
PAGE, AZ       CLEAR     33  22  63 CALM      30.51S
GRAND CANYON   PTCLDY    20  12  71 CALM      30.48R
KINGMAN        CLEAR     38  32  79 E10       30.43R WCI  31
FLAGSTAFF      CLEAR     26  12  55 E10       30.44R WCI  16

$$

REGIONAL REPORTS    NEVADA/IDAHO/WYOMING

CITY           SKY/WX    TMP DP  RH WIND       PRES   REMARKS
LAS VEGAS, NV  CLEAR     53  24  32 NE3       30.42R
ELY            CLEAR     11   7  84 S20       30.49F WCI  -7
ELKO           PTCLDY    18  13  80 NE5       30.49F WCI  11
POCATELLO, ID  CLOUDY    22  19  89 NE6       30.50F WCI  14
BURLEY         PTCLDY    24  21  88 NE6       30.45F WCI  17
EVANSTON, WY   CLOUDY    21  15  78 SW7       30.44S WCI  12
ROCK SPRINGS   CLOUDY    22  16  78 W29G40    30.36F WCI   4

$$



USA.gov is the U.S. government's official web portal to all federal, state and local government web resources and services.